Flag for U.S.A. Weather past 2 weeks in Winder, Georgia, U.S.A.

Now
81 °F

Sunny.


Feels Like: 84 °F
Forecast: 74 / 89 °F
Wind: No wind

Location: Winder-Barrow Airport

Current Time: Sep 2, 2015 at 8:22:38 PM

Latest Report: Sep 2, 2015 at 7:55 PM


Visibility: 10 mi

Pressure: 30.04 "Hg

Humidity: 70%

Dew point: 70 °F

Location of WinderLocation

Historic Weather in Winder — Graph

°F

Winder temperature yesterday

Maximum temperature yesterday: 88 °F (at 3:55 PM)
Minimum temperature yesterday: 68 °F (at 6:35 AM)
Average temperature yesterday: 77 °F

Past Weeks' High & Low Weather Summary

 TemperatureHumidityPressure
High90 °F (Aug 22, 3:55 PM)100% (Aug 18, 7:35 PM)30.27 "Hg (Aug 18, 7:35 PM)
Low63 °F (Aug 26, 7:15 AM)40% (Aug 25, 3:15 PM)29.93 "Hg (Aug 25, 5:15 PM)
Average76 °F75%30.08 "Hg
* Reported Aug 18 7:15 PM — Sep 2 7:15 PM, Winder, Weather by CustomWeather, © 2015

Note: Actual official high and low records may vary slightly from our data, if they occured in-between our weather recording intervals... More about our weather records

Advertising

Winder weather history for previous 24 hours

 ConditionsComfort  
Time TempWeatherWind HumidityBarometerVisibility
7:15 PM
Wed, Sep 2
86 °FSunny.No wind55%30.03 "Hg10 mi
6:55 PM86 °FSunny.No wind55%30.03 "Hg10 mi
6:35 PM86 °FSunny.No wind55%30.04 "Hg10 mi
5:55 PM88 °FSunny.No wind46%30.04 "Hg10 mi
5:35 PM88 °FSunny.No wind46%30.05 "Hg10 mi
5:15 PM88 °FSunny.No wind46%30.06 "Hg10 mi
4:55 PM88 °FSunny.No wind46%30.06 "Hg10 mi
4:35 PM88 °FSunny.No wind46%30.07 "Hg10 mi
4:15 PM88 °FBroken clouds.No wind49%30.07 "Hg10 mi
3:55 PM88 °FMostly cloudy.No wind52%30.08 "Hg10 mi
3:35 PM88 °FCloudy.No wind49%30.09 "Hg10 mi
3:15 PM88 °FPartly sunny.No wind49%30.09 "Hg10 mi
2:55 PM86 °FScattered clouds.No wind55%30.10 "Hg10 mi
2:15 PM88 °FScattered clouds.No wind52%30.11 "Hg7 mi
1:55 PM86 °FOvercast.No wind52%30.12 "Hg10 mi
1:35 PM86 °FOvercast.No wind55%30.12 "Hg10 mi
1:15 PM86 °FPartly sunny.No wind49%30.13 "Hg10 mi
12:55 PM88 °FScattered clouds.No wind46%30.14 "Hg10 mi
12:35 PM86 °FScattered clouds.No wind55%30.15 "Hg10 mi
12:15 PM82 °FBroken clouds.No wind62%30.15 "Hg10 mi
11:35 AM86 °FPartly sunny.No wind59%30.17 "Hg10 mi
11:15 AM86 °FScattered clouds.No wind59%30.17 "Hg10 mi
10:55 AM84 °FSunny.No wind62%30.17 "Hg10 mi
10:35 AM82 °FSunny.No wind66%30.17 "Hg10 mi
10:15 AM82 °FSunny.No wind66%30.16 "Hg10 mi
9:55 AM81 °FSunny.No wind70%30.17 "Hg10 mi
9:15 AM77 °FSunny.No wind79%30.17 "Hg10 mi
8:55 AM75 °FSunny.No wind83%30.17 "Hg10 mi
8:35 AM73 °FSunny.No wind83%30.17 "Hg10 mi
8:15 AM72 °FSunny.No wind88%30.17 "Hg10 mi
7:55 AM70 °FClear.No wind94%30.17 "Hg10 mi
7:35 AM70 °FClear.No wind94%30.17 "Hg10 mi
7:15 AM70 °FClear.No wind88%30.15 "Hg10 mi
6:55 AM70 °FClear.No wind88%30.15 "Hg10 mi
6:35 AM70 °FClear.No wind88%30.15 "Hg10 mi
6:15 AM70 °FClear.No wind88%30.14 "Hg10 mi
5:55 AM70 °FClear.No wind94%30.14 "Hg10 mi
5:35 AM70 °FClear.No wind94%30.14 "Hg10 mi
5:15 AM72 °FClear.No wind88%30.14 "Hg10 mi
4:55 AM70 °FClear.No wind94%30.14 "Hg10 mi
4:35 AM72 °FClear.No wind88%30.14 "Hg10 mi
4:15 AM72 °FClear.No wind88%30.14 "Hg10 mi
3:55 AM72 °FClear.No wind88%30.13 "Hg10 mi
3:35 AM72 °FClear.No wind88%30.14 "Hg10 mi
3:15 AM72 °FClear.No wind88%30.14 "Hg10 mi
2:55 AM72 °FClear.No wind88%30.14 "Hg10 mi
2:35 AM72 °FClear.No wind88%30.15 "Hg10 mi
2:15 AM72 °FClear.No wind88%30.15 "Hg10 mi
1:55 AM72 °FClear.No wind88%30.15 "Hg10 mi
1:15 AM72 °FClear.No wind88%30.15 "Hg10 mi
12:55 AM72 °FClear.No wind94%30.15 "Hg10 mi
12:15 AM73 °FClear.No wind89%30.15 "Hg10 mi
11:55 PM
Tue, Sep 1
73 °FClear.No wind89%30.15 "Hg10 mi
11:15 PM73 °FClear.No wind89%30.15 "Hg10 mi
10:55 PM73 °FClear.No wind89%30.15 "Hg10 mi
10:35 PM75 °FClear.No wind83%30.14 "Hg10 mi
10:15 PM75 °FClear.No wind83%30.14 "Hg10 mi
9:55 PM77 °FClear.No wind79%30.14 "Hg10 mi
9:35 PM77 °FClear.No wind79%30.14 "Hg10 mi
9:15 PM77 °FClear.No wind79%30.14 "Hg10 mi
8:55 PM79 °FSunny.No wind74%30.13 "Hg10 mi
8:35 PM79 °FSunny.No wind74%30.11 "Hg10 mi
8:15 PM79 °FSunny.No wind74%30.11 "Hg10 mi
Weather by CustomWeather, © 2015

See weather overviewHow to use our weather pages